Location: Çayiçi
(36.4667°N, 30.2333°E)
Time: 01:50:57
(UTC+00:00)

BlueWalker 3 - Pass Details

Date: 09 February 2023
Orbit: 497 x 514 km, 53.2° (Epoch: 01 April)

Event Time Altitude Azimuth Distance (km) Brightness Sun altitude
Rises 16:38:44 0° 324° (NW) 2,607 6.0 -13.7°
Reaches altitude 10° 16:41:26 10° 343° (NNW) 1,725 4.8 -14.2°
Maximum altitude 16:44:15 19° 29° (NNE) 1,272 3.6 -14.8°
Enters shadow 16:44:43 18° 39° (NE) 1,287 3.6 -14.8°
